TimeEDT,TemperatureF,Dew PointF,Humidity,Sea Level PressureIn,VisibilityMPH,Wind Direction,Wind SpeedMPH,Gust SpeedMPH,PrecipitationIn,Events,Conditions,WindDirDegrees,DateUTC
12:53 AM,33.1,21.9,64,30.22,10.0,Calm,Calm,-,N/A,,Clear,0,2013-03-30 04:53:00
1:53 AM,28.9,21.9,75,30.22,10.0,SW,4.6,-,N/A,,Clear,230,2013-03-30 05:53:00
2:53 AM,32.0,21.0,64,30.22,10.0,SSW,3.5,-,N/A,,Clear,200,2013-03-30 06:53:00
3:53 AM,28.9,21.0,72,30.22,10.0,SW,4.6,-,N/A,,Clear,230,2013-03-30 07:53:00
4:53 AM,28.0,21.0,75,30.21,10.0,Calm,Calm,-,N/A,,Clear,0,2013-03-30 08:53:00
5:53 AM,28.9,21.9,75,30.22,10.0,SW,5.8,-,N/A,,Clear,220,2013-03-30 09:53:00
6:53 AM,28.9,21.9,75,30.23,10.0,SSW,3.5,-,N/A,,Clear,210,2013-03-30 10:53:00
7:53 AM,30.9,24.1,76,30.24,10.0,SSW,5.8,-,N/A,,Clear,210,2013-03-30 11:53:00
8:53 AM,37.0,27.0,67,30.25,10.0,SW,5.8,-,N/A,,Clear,230,2013-03-30 12:53:00
9:53 AM,39.9,28.0,63,30.25,10.0,WSW,5.8,-,N/A,,Clear,250,2013-03-30 13:53:00
10:53 AM,44.1,26.1,49,30.24,10.0,West,5.8,-,N/A,,Clear,260,2013-03-30 14:53:00
11:53 AM,45.0,25.0,46,30.22,10.0,NNW,6.9,-,N/A,,Clear,330,2013-03-30 15:53:00
12:53 PM,46.0,25.0,44,30.21,10.0,NW,6.9,-,N/A,,Clear,310,2013-03-30 16:53:00
1:53 PM,46.9,25.0,42,30.19,10.0,NW,8.1,-,N/A,,Clear,310,2013-03-30 17:53:00
2:53 PM,48.0,19.9,33,30.17,10.0,West,5.8,-,N/A,,Clear,270,2013-03-30 18:53:00
3:53 PM,48.0,19.0,32,30.14,10.0,WNW,5.8,-,N/A,,Clear,290,2013-03-30 19:53:00
4:53 PM,48.0,19.9,33,30.13,10.0,NW,5.8,-,N/A,,Clear,320,2013-03-30 20:53:00
5:53 PM,46.9,19.0,33,30.13,10.0,Calm,Calm,-,N/A,,Clear,0,2013-03-30 21:53:00
6:53 PM,46.0,18.0,33,30.10,10.0,Calm,Calm,-,N/A,,Clear,0,2013-03-30 22:53:00
7:53 PM,39.9,24.1,53,30.09,10.0,Calm,Calm,-,N/A,,Clear,0,2013-03-30 23:53:00
8:53 PM,36.0,24.1,62,30.08,10.0,ESE,4.6,-,N/A,,Clear,110,2013-03-31 00:53:00
9:53 PM,36.0,24.1,62,30.07,10.0,East,4.6,-,N/A,,Clear,90,2013-03-31 01:53:00
10:53 PM,32.0,25.0,75,30.05,10.0,SSE,4.6,-,N/A,,Clear,160,2013-03-31 02:53:00
11:53 PM,32.0,25.0,75,30.03,10.0,SSW,5.8,-,N/A,,Clear,210,2013-03-31 03:53:00